Regional Weather Roundup
Issued by NWS

Home | Current Version | Previous Version | Graphics & Text | Print | Product List | Glossary On
Versions: 1 2 3 4 5 6 7 8 9 10 11 12 13 14 15 16 17 18 19 20 21 22 23 24 25 26 27 28 29 30 31 32 33 34 35 36 37 38 39 40 41 42 43 44 45 46 47 48 49 50
000
ASUS43 KMKX 250800
RWRWI

WISCONSIN REGIONAL WEATHER ROUNDUP
NATIONAL WEATHER SERVICE MILWAUKEE/SULLIVAN WI
300 AM CDT SAT OCT 25 2014

NOTE: "FAIR" INDICATES FEW OR NO CLOUDS BELOW 12,000 FEET WITH NO
SIGNIFICANT WEATHER AND/OR OBSTRUCTIONS TO VISIBILITY.

WIZ001-002-006>008-014>016-023>028-250900-
NORTHWEST WISCONSIN

CITY           SKY/WX    TMP DP  RH WIND       PRES   REMARKS
SUPERIOR ARPT  CLEAR     47  37  68 SW8       29.82R
ASHLAND        CLEAR     53  40  61 SW8       29.81S
HAYWARD        CLEAR     55  39  54 VRB7      29.86R
SIREN          CLEAR     52  38  60 W6        29.90R
CUMBERLAND     CLEAR     52  37  58 W9        29.89R
RICE LAKE      CLEAR     47  46  96 W5        29.89R
CHETEK         CLEAR     52  46  78 W7        29.88R
LADYSMITH        N/A     47  46  97 W6        29.87R FOG
EAU CLAIRE     NOT AVBL
MENOMONIE      CLEAR     52  46  80 W3        29.89S
NEW RICHMOND   PTCLDY    52  41  67 W9        29.92R
OSCEOLA        CLEAR     53  41  63 W8        29.96R
$$

WIZ003>005-009-010-017-018-250900-
NORTH CENTRAL WISCONSIN

CITY           SKY/WX    TMP DP  RH WIND       PRES   REMARKS
MANITOWISH WTR CLEAR     51  49  96 W8        29.80R
ARBOR VITAE    CLEAR     53  51  92 W6        29.80S FOG
WOODRUFF       CLEAR     53  51  92 W6        29.80S FOG
RHINELANDER    CLEAR     50  49  96 W9        29.82R FOG
EAGLE RIVER    CLEAR     51  50  97 W8        29.79R FOG
LAND O LAKES   CLEAR     52  49  89 W7        29.79R
PHILLIPS       CLEAR     51  49  95 W3        29.82S FOG
TOMAHAWK       PTCLDY    50  48  94 W7        29.82S FOG
MEDFORD        MOCLDY    52  51  97 W8        29.85R FOG
MERRILL        PTCLDY    53  53  98 W13       29.83R FOG
$$

WIZ029-030-035-036-043>047-250900-
CENTRAL WISCONSIN

CITY           SKY/WX    TMP DP  RH WIND       PRES   REMARKS
WAUSAU         MOCLDY    55  52  89 W13       29.83R
MOSINEE        CLOUDY    54  54 100 W8        29.85R FOG
MARSHFIELD     PTCLDY    54  52  93 W9        29.86R FOG
STEVENS POINT  CLOUDY    54  53  95 W10G16    29.84F FOG
WAUPACA        CLOUDY    58  56  94 W8        29.84S FOG
WAUTOMA        NOT AVBL
WISC RAPIDS    CLOUDY    55  53  93 W10       29.87S FOG
CAMP DOUGLAS   NOT AVBL
$$

WIZ011>013-019>022-031-037>040-048>050-250900-
NORTHEAST WISCONSIN

CITY           SKY/WX    TMP DP  RH WIND       PRES   REMARKS
ANTIGO         MOCLDY    53  51  95 W13       29.81S FOG
SHAWANO        MOCLDY    57  54  88 W7        29.80F
OCONTO         PTCLDY    54  54 100 SW6       29.77F
STURGEON BAY   MOCLDY    55  52  88 SW7       29.78F
GREEN BAY      CLOUDY    54  52  93 S5        29.80F FOG
MANITOWOC      NOT AVBL
APPLETON       CLOUDY    54  52  94 W8        29.83S
CLINTONVILLE   CLOUDY    55  54  94 W9        29.81F
OSHKOSH        CLOUDY    56  54  93 W9        29.83F FOG
$$

WIZ032>034-041-042-053>061-250900-
SOUTHWEST WISCONSIN

CITY           SKY/WX    TMP DP  RH WIND       PRES   REMARKS
LA CROSSE      CLEAR     56  53  90 CALM      29.91R FOG
SPARTA         CLEAR     54  53  97 W5        29.90S FOG
VIROQUA        CLOUDY    55  55 100 W7        29.92R
BOSCOBEL       CLEAR     56  54  93 S7        29.92R FOG
PRAIRIE DU CHI PTCLDY    58  55  91 W5        29.92S FOG
PLATTEVILLE    CLOUDY    58  58  97 W13       29.93S
$$

WIZ056-057-062-063-064-067-068-250900-
SOUTH CENTRAL WISCONSIN

CITY           SKY/WX    TMP DP  RH WIND       PRES   REMARKS
REEDSBURG      PTCLDY    56  55  94 SW5       29.89S FOG
BARABOO/DELLS  PTCLDY    56  53  89 W7        29.88S FOG
LONE ROCK      NOT AVBL
MINERAL POINT  CLOUDY    59  55  88 W9        29.92R FOG
MADISON        CLOUDY    59  55  87 W8G16     29.89S
MIDDLETON      CLOUDY    59  57  96 W14G20    29.89S
WATERTOWN      CLOUDY    54  54  99 SW6       29.87S
MONROE         CLOUDY    55  55 100 W12       29.91R FOG
JANESVILLE     CLOUDY    57  55  94 W7        29.91R FOG
$$

WIZ051-052-058>065-066-070>072-250900-
SOUTHEAST WISCONSIN

CITY           SKY/WX    TMP DP  RH WIND       PRES   REMARKS
MILWAUKEE      MOCLDY    55  49  80 W7        29.87S
WAUKESHA       MOCLDY    54  52  94 W13       29.88R
MILWAUKEE/TIMM MOCLDY    54  46  76 W8        29.87R
RACINE         MOCLDY    53  48  83 W5        29.89R
BURLINGTON     PTCLDY    52  51  97 W7        29.89R
KENOSHA        MOCLDY    53  50  89 SW8       29.87S
FOND DU LAC    CLOUDY    53  50  89 SW6       29.85S
SHEBOYGAN      MOCLDY    56  53  90 W16       29.83F
WEST BEND      MOCLDY    54  50  87 W10       29.85S
JUNEAU         CLOUDY    52  52  98 SW7       29.88R FOG
$$

LSZ147-162-250900-
LAKE SUPERIOR

STATION/POSITION TIME  TEMP    WIND        PRES    WAVE
                       AIR SEA DIR/SP/G            HT/PER
                 (UTC) (F)     (DEG/KT/KT) (MB)    (FT/S)
W MID LAKE BUOY  0650   53 46  260/ 19/ 21 1005.1R   3/ 5
DEVILS ISLAND    0700   57     270/ 22/ 26 1007.5R
PORT WING        0700   59     250/ 14/ 19 1009.1
SAXON HARBOR     0740   59     230/  5/ 10 1009.1R
$$

LMZ867-665-643>646-250900-
LAKE MICHIGAN

STATION/POSITION TIME  TEMP    WIND        PRES    WAVE
                       AIR SEA DIR/SP/G            HT/PER
                 (UTC) (F)     (DEG/KT/KT) (MB)    (FT/S)
CHAMBERS ISLAND  0700   54     200/  6/ 11 1008.1F
N MID LAKE BUOY  0650   52 51  210/ 17/ 21 1007.8F   5/ 6
NORTHPORT PIER   0701   55     250/  6/ 16 1007.8F
SISTER BAY       0613          220/ 14/ 18   N/A
KEWAUNEE LAKESHO 0700   53     250/  6/  8 1008.4F
SHEBOYGAN LAKESH 0700   54 51  210/  6/  6 1010.5F
PORT WASHINGTON  0740   54     270/  6/  8 1011.5S
ATWATER BUOY     0700   56     230/  6/  8 1012.0F
MILWAUKEE LAKESH 0700   57     240/ 10/ 14   N/A
S MID LAKE BUOY  0650   58 54  210/ 12/ 14 1011.2F   1/ 3
KENOSHA   LAKESH 0700   58     240/  7/ 10 1011.2F
$$

TC  - TEMPERATURE IN CELSIUS
VSB - VISIBILITY IN STATUTE MILES
WCI - WIND CHILL INDEX
HX  - HEAT INDEX




USA.gov is the U.S. government's official web portal to all federal, state and local government web resources and services.